STARLINK-1215, 45225

Orbit data source: Space-Track

STARLINK-1215, 45225 is a payload satellite owned by SpaceX/Seattle (US) in LEO that was launched on Mon, 17 Feb 2020 UTC via an FALCON 9 launch vehicle from the Air Force Eastern Test Range (AFETR). Payload-class satellites include a variety of spacecraft equipped with specific instruments for various scientific and technological missions. These include communications satellites like Starlink; space stations such as the ISS; scientific satellites like the Hubble; Earth observation satellites from companies like Planet Labs, Umbra, and HawkEye 360; GPS; miniature CubeSats for education and research; and military/defense satellites.

Loading next visibility...
Identifier
45225, 2020-012AZ
Orbit
LEO
Country
Flag of USUS
Related business
Manufacturer
SpaceX/Seattle
Mission
Partially operational Commercial Communications
Bus & Motor
STARLINK, Unknown motor
Mass
260 kg wet, ~248 kg dry
Launch date (UTC)
2020-02-17 (6 years ago)
Launch vehicle
FALCON 9
Launch site
Air Force Eastern Test Range (AFETR)
Object type
Payload
Rocket body
Debris
Shape & HBR
Box + 1 Pan, 10.1 m
Radar Cross Section
13.562 m², Large (>1 m²)

Expand to show TLE details & history
Last TLE update: 2 days ago

TLE from 2 days ago
0 STARLINK-1215
1 45225U 20012AZ  26171.44751608  .00033341  00000-0  93110-3 0  9996
2 45225  53.1556 239.4231 0004679 335.8609  24.2174 15.36429544351236
Epoch: 2026-06-20T10:44Z
TLE epoch observation values (Epoch: 2026-06-20T10:44:25.389Z)
Latitude
-0.00005°
Longitude
169.65527°
Altitude
454.663 km
Speed
7.643 km/s
True Right ascension
15h 57m 41s
True Declination
0° 00' 00"
Sunlit
Object was in full shadow at epoch
Visualization orbit readout
Latitude
Unknown
Longitude
Unknown
Altitude
Unknown
Speed
Unknown
Apparent Right ascension
Unknown
Apparent Declination
Unknown
Sunlit
N/A
Visualization observer readout
Local Sidereal Time
21:40:05
Azimuth
Unknown
Elevation
Unknown
Doppler factor
Unknown
Orbital elements
Apogee altitude
460.134 km
Perigee altitude
453.737 km
Semi-major axis
6,835.072 km
Eccentricity
0.00047
Inclination
53.1556°
RAAN
239.4231°
Arg. of periapsis
335.8609°
True anomaly
24.23941°
Mean anomaly
24.2174°
Eccentric anomaly
24.2284°
Mean motion
3.84086 °/min
Orbital period
93.73 mins
BSTAR
0.0009311
Loading maneuver chart data...
Computing Atmospheric mass density...

Documentation

Showing up to 5 results
|